sat.trackr.live / text

‹ back to catalog

HULIANWANG DIGUI-12

NORAD 62972 · 2025-030B

PAYLOAD ACTIVE UNKNOWN

§ Identity

Operator
Country
PRC
Launch date
2025-02-11
Launch site
WSC
Launch vehicle
Mass (kg)
RCS (m²)

External: N2YO · Heavens-Above · Gunter

§ Orbital elements

Epoch: 2026-09-22T21:38:50.165664Z

Period
108.33 min
Inclination
50.0013°
Eccentricity
0.0000548
Mean motion
13.29325348 rev/d
Perigee alt
1,148.9 km
Apogee alt
1,149.7 km
Semi-major
7,527.4 km
B*
6.8246e-5
RAAN
245.4860°
Arg perigee
55.5621°
Mean anomaly
304.5303°
Rev number
7,885

§ Raw data

HULIANWANG DIGUI-121 62972U 25030B   26265.90196951 -.00000092  00000+0  68246-4 0  99982 62972  50.0013 245.4860 0000548  55.5621 304.5303 13.29325348 78853

JSON: /api/v1/satellites/62972 · /tle

For live sub-satellite position, see the globe view (requires WebGL).

§ Visibility from observer

Set your observer location to see the next 7 days of passes ≥ 10°. The values pass through the URL so the page stays shareable.

No JS? Fill the form by hand. The geolocation button needs JavaScript.